Regional Weather Roundup
Issued by NWS

Home | Current Version | Previous Version | Text Only | Print | Product List | Glossary Off
Versions: 1 2 3 4 5 6 7 8 9 10 11 12 13 14 15 16 17 18 19 20 21 22 23 24 25 26 27 28 29 30 31 32 33 34 35 36 37 38 39 40 41 42 43 44 45 46 47 48 49 50

000
ASUS43 KDTX 281410
RWRMI
MICHIGAN HOURLY REGIONAL WEATHER ROUNDUP
NATIONAL WEATHER SERVICE DETROIT/PONTIAC MI
ISSUED BY NATIONAL WEATHER SERVICE GRAND RAPIDS MI
1000 AM EDT SUN MAY 28 2017

NOTE: "FAIR" INDICATES FEW OR NO CLOUDS BELOW 12,000 FEET WITH NO
SIGNIFICANT WEATHER AND/OR OBSTRUCTION TO VISIBILITY.

MIZ047>049-052>055-059>063-066>070-074>076-081>083-281500-
SOUTHEAST LOWER MICHIGAN

CITY           SKY/WX    TMP DP  RH WIND       PRES   REMARKS
ADRIAN         CLOUDY    67  59  75 E6        29.79R
ALMA           MOSUNNY   68  57  69 S6        29.78S
ANN ARBOR      CLOUDY    67  55  65 E8        29.78R
BAD AXE        CLOUDY    66  56  71 S10       29.79S
DETROIT CITY   CLOUDY    65  54  67 SE10      29.79S
DETROIT        CLOUDY    67  54  63 SE6       29.80R
FLINT          PTSUNNY   68  55  63 S9        29.79R
GROSSE ILE     CLOUDY    67  55  65 E3        29.77R
HILLSDALE      CLOUDY    64  57  77 SE6       29.77S
HOWELL         CLOUDY    67  51  57 SE10      29.79R

CITY           SKY/WX    TMP DP  RH WIND       PRES   REMARKS
JACKSON        CLOUDY    67  55  65 SE10      29.77S
LANSING        PTSUNNY   70  53  54 SE14      29.78R
MASON          CLOUDY    67  55  66 SE9       29.78S
MONROE         CLOUDY    67  55  66 E6        29.78R
MT. CLEMENS    CLOUDY    63  55  76 E3        29.79S
PONTIAC        CLOUDY    66  52  60 SE12      29.79R
PORT HOPE        N/A     67  57  70 S10       29.77F
PORT HURON     CLOUDY    66  52  59 E8        29.80S
TRI CITIES     CLOUDY    68  58  70 S9        29.78R
YPSILANTI      MOSUNNY   68  54  60 SE7       29.79R
$$
MIZ043>046-050>051-056>058-064>065-071>073-077>080-281500-
SOUTHWEST LOWER MICHIGAN

CITY           SKY/WX    TMP DP  RH WIND       PRES   REMARKS
BATTLE CREEK   CLOUDY    68  56  65 SE8       29.77R
BENTON HARBOR  CLOUDY    68  57  68 SE7       29.74F
BIG RAPIDS     CLOUDY    66  55  66 SE7       29.77S
COLDWATER      CLOUDY    67  59  77 SE7       29.76F
HOLLAND        CLOUDY    69  55  60 S9        29.76S
GRAND RAPIDS   CLOUDY    69  54  58 SE10      29.76R
KALAMAZOO      CLOUDY    69  55  60 SE3       29.76S
MARSHALL       MOSUNNY   68  57  68 SE9       29.76F
MOUNT PLEASANT CLOUDY    67  55  64 S7        29.77R
MUSKEGON       CLOUDY    69  55  60 SE6       29.75S
STURGIS        CLOUDY    66  58  74 SE8       29.75F
$$
MIZ016>042-281500-
NORTHERN LOWER MICHIGAN

CITY           SKY/WX    TMP DP  RH WIND       PRES   REMARKS
ALPENA         PTSUNNY   67  60  78 SE6       29.75F
BEAVER ISLAND  HVY RAIN  56  54  91 SW3       29.74R
BELLAIRE       CLOUDY    65  55  69 CALM      29.73S
CADILLAC       CLOUDY    64  55  72 S10       29.76S
CHARLEVOIX     CLOUDY    65  55  69 W3        29.75S
GAYLORD        CLOUDY    67  54  63 S9        29.75R
HOUGHTON LAKE  CLOUDY    67  57  70 S6        29.77R
MANISTEE       PTSUNNY   65  55  70 S3        29.74R
OSCODA         SUNNY     70  56  59 SW13G22   29.77R
PELLSTON       CLOUDY    65  54  67 E3        29.74S
TRAVERSE CITY  CLOUDY    67  54  63 VRB3      29.72R
LUDINGTON      CLOUDY    62  55  79 SW3       29.75R
$$
MIZ007>008-015-281500-
EASTERN UPPER MICHIGAN

CITY           SKY/WX    TMP DP  RH WIND       PRES   REMARKS
KINROSS        CLOUDY    59  53  80 E7        29.74F
MACKINAC ISLAN CLOUDY    51  49  94 E6        29.75R
NEWBERRY       CLOUDY    56  55  94 N5        29.70F
S. S. MARIE    CLOUDY    59  52  77 SE9       29.74S
$$
MIZ004>006-011>014-085-281500-
CENTRAL UPPER MICHIGAN

CITY           SKY/WX    TMP DP  RH WIND       PRES   REMARKS
MANISTIQUE     CLOUDY    47  44  89 CALM      29.73R
ESCANABA       LGT RAIN  55  54  96 NW5       29.72F
SAWYER-GWINN   RAIN      55  54  94 SW7       29.74R
$$
MIZ001>003-009>011-084-281500-
WESTERN UPPER MICHIGAN

CITY           SKY/WX    TMP DP  RH WIND       PRES   REMARKS
IRON MOUNTAIN  RAIN      57  52  83 N5        29.72S
HOUGHTON       LGT RAIN  54  50  86 S7        29.70S FOG
COPPER HARBOR    N/A     51  45  79 CALM      29.68R
IRONWOOD       CLOUDY    63  50  62 S12G17    29.69S
$$

ABBREVIATIONS USED IN REMARKS
   TC - TEMPERATURE IN CELSIUS
  WCI - WIND CHILL INDEX
   HX - HEAT INDEX
  VSB - VISIBILITY




USA.gov is the U.S. government's official web portal to all federal, state and local government web resources and services.